Погода в Тауше

Россия / Пермский край     56°25′37″N   56°04′47″E
темп.,
°C
ветер,
м/с
пор.,
м/с
влажн.,
%
обл.,
%
осадки,
мм/ч
давл.,
гПа
погр.,
м
15 августа, пн
пн1523:00+13ссз22744 0.0 102210
02:00+11с11769 0.0 102210
05:00+14зюз116599 0.0 102310
08:00+15с016661 0.0 102348
11:00+20ссв224920 0.0 1023821
14:00+22ссз34464 0.0 10231896
17:00+22ссз44412 0.0 10231877
20:00+18ссв33610 0.0 102337
16 августа, вт
вт1623:00+13св33680 0.0 102525
02:00+11всв22760 0.0 102512
05:00+10ссв11760 0.0 102610
08:00+14сз11620 0.0 102675
11:00+20сз23472 0.0 1026755
14:00+23сз34395 0.0 10251820
17:00+23сз46412 0.0 10241949
20:00+20з3657100 0.0 1024115
17 августа, ср
ср1723:00+17ссв346767 0.0 102557
02:00+13св3477100 0.0 102548
05:00+12св2274100 0.0 102632
08:00+14св23665 0.0 1026118
11:00+20св33465 0.0 1025819
14:00+23ссв34435 0.0 10241605
17:00+23ссв344415 0.0 10241761
20:00+19ссв116371 0.0 102311
18 августа, чт
чт1823:00+15юв2277100 0.0 102311
02:00+16св237697 0.1 102351
05:00+13св229126 0.2 102424
08:00+15всв35825 0.0 1024177
11:00+20всв344991 0.0 1025886
14:00+22св4542100 0.0 10241629
17:00+21св464477 0.0 10241781
20:00+18всв345789 0.0 102584
19 августа, пт
пт1923:00+14всв33745 0.0 102454
02:00+12св228159 0.0 102517
05:00+10св11865 0.0 102610
08:00+14всв11715 0.0 1027101
11:00+19ссв22505 0.0 1027744
14:00+22с34410 0.0 10261610
17:00+24ссв34370 0.0 10261835
20:00+18в34585 0.0 102672